TimeCST,TemperatureF,Dew PointF,Humidity,Sea Level PressureIn,VisibilityMPH,Wind Direction,Wind SpeedMPH,Gust SpeedMPH,PrecipitationIn,Events,Conditions,WindDirDegrees,DateUTC
12:54 AM,17.1,8.1,68,29.90,10.0,SSW,6.9,-,N/A,,Clear,200,2012-01-04 06:54:00
1:54 AM,18.0,9.0,68,29.91,10.0,SW,5.8,-,N/A,,Clear,230,2012-01-04 07:54:00
2:54 AM,18.0,9.0,68,29.91,10.0,WSW,5.8,-,N/A,,Clear,250,2012-01-04 08:54:00
3:54 AM,17.1,9.0,71,29.93,10.0,West,6.9,-,N/A,,Clear,260,2012-01-04 09:54:00
4:54 AM,18.0,10.0,71,29.92,10.0,West,4.6,-,N/A,,Clear,270,2012-01-04 10:54:00
5:54 AM,19.9,12.9,74,29.94,10.0,WNW,8.1,-,N/A,,Clear,300,2012-01-04 11:54:00
6:54 AM,19.9,14.0,78,29.97,10.0,NW,16.1,-,N/A,,Clear,310,2012-01-04 12:54:00
7:54 AM,19.0,14.0,81,29.98,10.0,WNW,12.7,-,N/A,,Clear,300,2012-01-04 13:54:00
8:54 AM,19.0,14.0,81,30.02,10.0,WNW,12.7,-,N/A,,Clear,300,2012-01-04 14:54:00
10:54 AM,23.0,16.0,74,30.04,10.0,WNW,17.3,-,N/A,,Clear,300,2012-01-04 16:54:00
11:54 AM,24.1,17.1,75,30.02,10.0,NW,12.7,-,N/A,,Clear,310,2012-01-04 17:54:00
12:54 PM,26.1,18.0,71,30.01,10.0,WNW,12.7,-,N/A,,Mostly Cloudy,300,2012-01-04 18:54:00
1:54 PM,28.0,18.0,66,29.99,10.0,West,11.5,-,N/A,,Clear,280,2012-01-04 19:54:00
2:54 PM,28.9,18.0,64,30.01,10.0,West,9.2,-,N/A,,Clear,280,2012-01-04 20:54:00
4:54 PM,27.0,17.1,66,30.03,10.0,West,5.8,-,N/A,,Clear,260,2012-01-04 22:54:00
5:54 PM,26.1,18.0,71,30.03,10.0,West,5.8,-,N/A,,Clear,260,2012-01-04 23:54:00
6:54 PM,23.0,16.0,74,30.05,10.0,WSW,5.8,-,N/A,,Clear,250,2012-01-05 00:54:00
7:54 PM,24.1,17.1,75,30.04,10.0,WSW,5.8,-,N/A,,Clear,250,2012-01-05 01:54:00
8:54 PM,24.1,17.1,75,30.04,10.0,SW,3.5,-,N/A,,Clear,220,2012-01-05 02:54:00
9:54 PM,19.0,15.1,85,30.01,10.0,SW,4.6,-,N/A,,Clear,220,2012-01-05 03:54:00
10:54 PM,21.0,17.1,85,30.00,10.0,SSW,6.9,-,N/A,,Clear,210,2012-01-05 04:54:00
11:54 PM,19.0,16.0,88,29.99,10.0,Calm,Calm,-,N/A,,Clear,0,2012-01-05 05:54:00